Wind_Speed
45 46 45 43 41 39 38 39 40 42 43 43 40 32 35 43 45 48 51 57 60 64 67 70 74 77 78 80 83 82 82 85 81 75 71 70 67 62 58 57 53 44 38
45 45 43 39 36 36 38 39 40 40 39 35 31 36 43 46 49 53 58 62 66 71 75 77 80 82 84 87 88 84 84 80 69 62 65 60 56 54 47 43 40 35 32
42 38 35 34 36 36 38 38 37 35 31 32 37 43 47 50 55 58 62 67 72 76 79 83 85 85 87 85 83 82 71 64 65 65 61 48 44 34 35 37 30 28 32
33 33 34 35 35 36 36 35 33 32 34 38 43 48 51 55 59 63 67 71 76 83 87 87 85 84 83 80 73 68 67 65 59 43 32 35 30 32 30 23 27 30 31
33 34 34 33 34 33 33 32 33 34 39 44 48 52 56 59 63 68 73 79 84 86 85 83 80 77 72 73 70 60 52 41 29 30 23 29 27 21 20 26 28 30 34
32 34 32 32 32 32 32 32 35 41 45 48 53 56 60 64 68 72 78 84 85 82 74 68 67 68 62 49 42 34 27 23 22 28 18 21 13 19 22 25 29 33 37
29 31 32 33 32 33 34 37 41 47 50 53 57 61 63 68 71 75 77 78 78 65 61 58 49 48 42 33 29 21 24 24 19 16 10 15 18 20 23 28 33 36 40
31 33 32 30 32 34 40 44 48 51 54 57 60 62 66 68 71 68 67 69 66 57 49 46 43 41 38 30 29 28 16 15 11 13 16 18 20 23 27 32 36 40 45
33 31 30 30 36 42 46 48 51 53 57 59 61 65 65 68 59 54 61 55 46 39 36 40 38 36 39 33 22 16 13 12 16 17 18 21 24 28 33 37 39 44 50
31 33 35 39 42 45 47 50 52 55 57 60 62 64 65 59 43 43 45 38 36 43 43 37 37 37 26 20 17 13 16 17 18 20 22 25 29 33 37 39 43 48 53
33 37 39 42 46 49 52 54 56 57 58 60 62 63 61 49 38 36 38 38 37 40 38 35 32 26 23 16 18 18 18 20 22 24 26 30 34 37 40 43 46 51 55
41 43 46 49 51 53 54 56 57 58 59 58 60 63 57 43 36 32 35 36 36 36 36 35 34 28 18 20 22 21 21 23 25 27 30 34 38 42 45 47 50 54 57
45 47 50 54 57 57 56 57 59 59 59 61 63 60 50 40 36 34 32 34 37 38 37 36 36 24 22 23 24 24 25 27 29 32 35 38 42 46 48 50 53 57 60
49 51 53 56 58 58 57 57 58 59 61 62 59 51 40 36 33 34 33 33 34 37 36 35 35 27 26 26 27 28 28 31 33 36 39 43 46 48 50 53 56 59 62
53 54 56 58 59 57 57 56 58 60 62 59 42 37 34 31 35 35 35 35 34 35 36 34 35 32 31 31 32 33 34 35 37 40 43 47 48 50 52 54 57 59 62
57 57 56 56 57 57 56 59 60 60 52 35 33 31 32 36 38 38 37 36 35 36 37 36 35 34 33 35 35 36 37 39 40 43 46 48 49 51 53 55 59 61 62
58 57 56 57 58 58 61 60 55 37 28 32 32 33 36 40 39 38 38 38 38 38 39 36 35 35 34 36 37 38 39 41 43 45 47 49 50 52 54 56 60 63 63
60 59 59 60 61 59 57 43 29 29 31 31 32 35 38 39 39 40 39 40 42 42 40 37 37 35 34 36 38 40 41 43 44 46 47 48 51 53 55 57 61 63 63
63 64 61 58 54 45 31 28 29 32 31 32 35 35 36 36 38 40 43 44 44 42 42 38 38 36 35 36 38 40 42 43 44 45 46 49 51 54 55 58 62 64 63
62 57 52 38 27 26 29 29 28 29 33 34 33 34 35 38 40 43 44 45 45 41 40 36 36 36 36 36 38 39 41 41 42 45 48 50 52 55 56 60 63 63 63
47 34 25 26 26 27 28 30 31 31 30 33 37 40 42 44 45 46 46 45 42 40 36 34 35 36 35 36 38 40 41 41 42 46 49 51 53 55 56 60 62 62 62
23 23 24 24 22 19 19 21 25 30 34 38 41 44 47 48 48 47 45 44 39 33 31 32 35 35 35 36 38 40 41 42 44 48 49 51 53 55 57 59 61 62 62
19 17 15 16 18 20 23 26 29 34 40 44 45 48 51 47 46 44 43 42 37 31 32 32 34 34 36 37 38 39 41 42 45 48 50 52 54 55 56 59 61 61 61
15 18 19 22 25 28 32 35 38 42 44 45 43 45 43 38 38 41 41 38 35 32 31 32 34 36 36 37 38 40 41 42 46 49 52 54 55 55 56 58 59 59 60
21 23 26 30 33 36 39 43 46 47 47 42 40 39 37 35 37 40 39 38 34 33 34 34 36 38 38 39 40 41 42 45 48 51 54 55 55 55 55 57 57 58 59
32 35 38 40 41 43 45 48 47 47 40 36 36 36 35 33 34 35 36 36 36 35 36 38 39 40 40 41 43 43 45 49 51 53 55 56 55 54 54 56 57 57 58
Wind_Direction
279 283 284 283 282 281 281 284 287 292 296 298 300 299 304 310 311 308 308 309 309 307 306 304 303 301 299 298 299 299 298 300 300 297 295 293 290 286 284 282 285 286 281
280 282 281 278 277 279 283 286 290 293 295 297 299 306 307 306 306 307 309 310 308 306 305 305 303 301 299 296 297 299 300 301 299 298 300 296 296 292 293 294 285 278 287
279 276 273 275 279 284 286 290 293 293 295 297 299 304 304 307 309 308 307 308 307 306 306 306 303 299 296 299 301 303 302 300 299 299 298 294 294 288 291 285 285 292 295
271 272 275 279 282 286 287 289 291 291 294 299 301 304 305 307 308 307 307 307 308 310 308 304 301 302 305 305 303 301 301 301 300 296 295 293 292 287 283 295 295 297 301
270 273 276 280 279 282 283 285 288 293 297 297 300 303 305 307 308 309 309 312 312 308 304 306 309 309 307 306 302 303 301 299 297 301 298 300 292 283 302 300 303 307 311
274 274 275 278 278 276 278 286 291 295 297 300 303 303 305 308 309 310 314 314 310 307 310 312 314 314 311 312 310 312 312 308 306 305 309 292 301 305 305 308 312 314 316
273 274 275 272 266 272 284 290 295 296 299 302 302 304 308 308 312 317 314 313 311 316 315 317 326 327 328 328 321 315 316 309 313 320 312 313 310 312 315 319 321 321 321
270 272 267 266 270 282 289 293 294 299 301 301 302 306 307 312 319 317 316 313 312 316 319 322 327 328 327 332 328 320 325 329 330 321 318 319 319 320 323 323 323 323 325
266 264 268 276 280 283 289 295 297 298 298 301 305 306 311 319 318 323 325 321 324 325 326 328 329 328 323 324 327 334 332 333 326 324 322 321 322 322 324 323 323 325 325
261 273 282 289 289 290 292 293 293 296 301 303 304 307 315 316 316 331 339 341 337 330 329 327 322 320 324 329 331 329 328 329 327 325 322 323 323 323 323 324 325 325 324
276 283 286 286 289 291 292 294 297 298 300 301 304 309 313 308 307 319 322 326 330 329 329 326 324 322 319 324 320 320 325 324 323 323 324 324 324 324 325 324 325 325 327
280 282 285 287 287 289 293 295 296 298 299 301 305 309 306 294 297 304 310 316 319 321 322 321 320 317 310 312 312 316 320 319 320 322 324 324 324 326 327 326 325 326 328
283 285 289 290 290 291 293 295 297 298 300 304 306 303 297 287 291 300 302 308 313 313 315 316 317 300 299 304 307 313 316 317 319 321 322 323 324 326 327 325 325 327 328
288 289 292 292 290 292 295 295 296 299 302 301 299 297 290 291 295 299 300 300 304 310 311 310 313 295 292 297 300 306 310 313 315 319 320 322 324 325 326 326 327 329 330
290 291 291 291 292 293 293 295 299 300 298 297 294 292 287 294 296 299 300 297 298 301 305 306 308 300 286 289 295 300 305 309 312 316 318 321 323 324 325 326 328 330 330
287 288 290 291 290 292 295 299 297 295 294 287 290 286 286 294 295 295 297 296 296 298 297 302 304 303 289 285 290 296 301 305 309 313 316 320 322 324 326 327 329 330 330
291 290 290 291 292 296 299 294 292 288 284 287 286 284 289 293 294 294 294 296 292 294 293 298 299 300 295 288 288 293 299 302 307 312 316 321 322 324 326 328 330 331 331
290 291 293 293 297 295 290 288 283 283 287 288 286 286 288 291 296 297 297 297 292 291 292 294 297 298 294 293 290 292 297 302 307 312 317 320 322 324 326 328 330 332 332
292 293 293 292 288 286 279 280 281 285 283 286 285 288 290 293 297 297 296 297 294 290 291 293 294 296 294 294 295 295 298 303 309 314 318 319 321 324 326 328 330 332 332
292 289 286 284 276 277 285 286 285 283 284 285 286 288 291 294 295 297 297 298 296 287 287 291 292 292 291 293 296 297 300 304 310 314 316 319 322 324 325 328 330 331 331
283 278 273 275 277 284 285 288 290 290 288 288 289 289 290 292 294 296 299 302 297 288 287 286 288 289 290 293 295 297 299 304 309 311 315 318 322 323 325 327 329 331 331
272 271 275 280 284 288 292 297 298 298 297 294 292 293 293 292 292 295 299 303 298 287 283 285 287 288 291 292 295 298 301 304 306 309 314 317 320 322 323 326 329 330 331
274 274 271 278 284 288 292 297 302 305 310 303 296 299 297 292 291 293 297 301 303 287 281 281 283 285 289 291 294 299 301 303 305 309 313 316 319 321 323 325 328 329 331
263 269 275 283 288 291 296 299 303 304 303 301 299 303 301 294 289 291 294 298 298 292 282 282 285 287 289 291 294 297 301 303 304 308 312 315 317 320 321 324 327 329 331
273 280 284 288 292 296 297 300 300 300 298 295 298 304 301 298 293 293 294 295 293 288 287 286 287 288 289 292 294 297 301 302 304 308 310 313 316 318 320 323 326 328 330
282 287 291 293 295 296 297 298 298 300 294 290 295 300 301 300 303 303 302 297 294 290 287 287 285 285 287 290 292 296 299 300 303 306 308 311 314 317 318 321 325 327 330
Height
5748 5747 5745 5743 5741 5737 5734 5731 5728 5725 5721 5717 5714 5710 5706 5701 5696 5690 5684 5677 5669 5662 5654 5645 5637 5628 5618 5609 5599 5589 5579 5569 5561 5554 5548 5541 5537 5533 5529 5525 5522 5519 5516
5738 5737 5736 5733 5731 5728 5726 5722 5719 5716 5712 5709 5705 5701 5697 5692 5686 5680 5672 5664 5656 5647 5638 5629 5619 5608 5598 5587 5576 5567 5558 5549 5542 5536 5530 5524 5520 5518 5516 5513 5512 5509 5507
5729 5727 5726 5724 5722 5720 5717 5713 5710 5706 5703 5700 5696 5692 5687 5681 5674 5667 5660 5651 5642 5631 5620 5609 5597 5585 5574 5563 5555 5545 5537 5531 5525 5520 5514 5509 5506 5505 5503 5504 5502 5501 5499
5719 5718 5717 5715 5713 5710 5708 5704 5701 5697 5695 5691 5687 5681 5675 5669 5662 5654 5645 5636 5625 5613 5600 5587 5576 5564 5553 5543 5534 5526 5520 5514 5509 5504 5501 5499 5497 5497 5495 5495 5495 5494 5490
5710 5709 5708 5706 5703 5701 5698 5696 5693 5690 5686 5681 5676 5670 5664 5657 5649 5641 5631 5620 5607 5593 5579 5567 5556 5545 5535 5525 5516 5509 5504 5501 5499 5496 5494 5493 5492 5491 5491 5490 5488 5485 5481
5702 5700 5698 5696 5694 5691 5689 5687 5685 5681 5676 5671 5665 5659 5652 5645 5636 5626 5614 5603 5588 5573 5560 5550 5541 5531 5518 5508 5502 5499 5497 5496 5494 5491 5488 5489 5489 5487 5486 5484 5482 5478 5473
5693 5691 5689 5687 5684 5683 5681 5679 5675 5671 5666 5661 5655 5648 5640 5632 5622 5612 5598 5586 5572 5559 5549 5541 5532 5523 5514 5506 5501 5497 5494 5492 5490 5488 5487 5487 5485 5483 5482 5479 5475 5470 5464
5684 5682 5680 5679 5677 5675 5672 5669 5666 5661 5656 5650 5643 5635 5626 5618 5608 5597 5584 5571 5559 5549 5541 5535 5527 5519 5512 5505 5501 5497 5492 5490 5488 5488 5486 5484 5482 5479 5476 5472 5468 5462 5455
5674 5673 5672 5671 5669 5665 5662 5659 5655 5650 5645 5638 5630 5622 5614 5606 5595 5585 5571 5560 5552 5544 5537 5531 5524 5518 5511 5505 5499 5495 5493 5490 5488 5486 5484 5481 5478 5474 5470 5465 5460 5452 5445
5665 5665 5664 5662 5658 5655 5651 5648 5643 5638 5632 5625 5617 5609 5600 5593 5585 5576 5566 5556 5549 5542 5534 5527 5522 5515 5508 5503 5499 5496 5493 5490 5487 5484 5481 5477 5473 5469 5463 5457 5451 5443 5435
5658 5656 5654 5651 5647 5644 5640 5635 5629 5623 5617 5611 5603 5595 5588 5581 5575 5568 5560 5553 5545 5538 5531 5525 5519 5512 5507 5503 5499 5495 5492 5488 5484 5480 5476 5472 5467 5461 5455 5448 5441 5433 5423
5648 5646 5643 5639 5635 5630 5625 5620 5615 5608 5602 5595 5589 5582 5575 5568 5563 5558 5552 5545 5540 5534 5528 5521 5515 5510 5505 5501 5498 5493 5489 5485 5480 5476 5471 5465 5460 5453 5446 5438 5430 5422 5412
5637 5634 5631 5627 5622 5617 5611 5606 5600 5593 5587 5582 5575 5568 5561 5556 5552 5547 5543 5537 5532 5527 5522 5516 5510 5506 5502 5498 5494 5490 5485 5481 5476 5470 5465 5458 5451 5444 5436 5428 5419 5410 5400
5624 5620 5616 5612 5608 5603 5596 5590 5585 5578 5573 5567 5560 5554 5549 5546 5542 5538 5533 5529 5525 5519 5515 5510 5505 5500 5496 5493 5489 5485 5480 5476 5470 5464 5458 5451 5444 5436 5428 5418 5408 5398 5387
5611 5606 5602 5597 5592 5586 5581 5575 5570 5564 5557 5552 5547 5543 5540 5537 5533 5529 5524 5520 5516 5511 5507 5502 5498 5493 5489 5486 5482 5478 5474 5469 5463 5457 5450 5443 5435 5427 5419 5409 5399 5388 5376
5594 5590 5585 5581 5576 5571 5566 5561 5555 5548 5542 5539 5537 5534 5532 5528 5523 5519 5515 5511 5507 5502 5498 5494 5490 5486 5482 5478 5475 5470 5466 5461 5455 5449 5442 5435 5427 5418 5409 5400 5389 5378 5366
5581 5576 5571 5566 5561 5556 5551 5545 5540 5534 5532 5530 5527 5524 5522 5518 5514 5509 5505 5501 5497 5493 5488 5485 5481 5477 5473 5469 5466 5462 5458 5453 5447 5441 5434 5426 5417 5409 5399 5390 5379 5367 5354
5563 5559 5554 5550 5546 5541 5535 5531 5528 5527 5524 5521 5519 5516 5512 5508 5504 5500 5496 5491 5487 5483 5479 5476 5472 5468 5464 5460 5457 5453 5449 5444 5438 5432 5425 5417 5408 5400 5390 5380 5369 5357 5345
5548 5544 5539 5534 5529 5525 5522 5521 5519 5518 5515 5513 5510 5506 5503 5499 5495 5491 5486 5481 5476 5472 5468 5466 5462 5458 5455 5451 5448 5444 5439 5435 5429 5423 5416 5408 5400 5390 5380 5370 5359 5348 5336
5531 5527 5523 5520 5518 5516 5515 5513 5510 5508 5506 5503 5501 5497 5494 5490 5485 5480 5475 5469 5464 5461 5457 5456 5452 5449 5446 5442 5438 5434 5430 5426 5420 5414 5407 5399 5391 5381 5371 5361 5350 5339 5327
5515 5513 5512 5511 5509 5508 5506 5504 5502 5500 5497 5495 5492 5487 5484 5479 5474 5468 5463 5458 5452 5449 5447 5445 5442 5439 5436 5433 5429 5425 5420 5416 5411 5404 5397 5389 5381 5372 5362 5352 5342 5331 5319
5504 5504 5503 5502 5501 5500 5498 5497 5495 5492 5488 5484 5480 5475 5471 5466 5461 5456 5452 5447 5442 5439 5437 5435 5432 5429 5426 5423 5419 5415 5410 5406 5401 5394 5387 5380 5372 5363 5353 5343 5333 5322 5311
5498 5497 5497 5496 5495 5493 5491 5489 5486 5482 5478 5472 5467 5462 5456 5453 5448 5445 5441 5436 5431 5428 5427 5426 5423 5420 5417 5413 5409 5405 5401 5396 5390 5384 5377 5370 5363 5354 5344 5334 5324 5314 5303
5492 5492 5491 5489 5488 5485 5482 5479 5475 5471 5466 5460 5455 5450 5443 5440 5437 5433 5431 5427 5423 5419 5418 5416 5413 5410 5407 5403 5400 5396 5391 5386 5380 5374 5367 5360 5353 5344 5334 5325 5316 5305 5294
5486 5485 5483 5481 5478 5475 5472 5468 5463 5458 5453 5448 5444 5440 5435 5431 5428 5423 5420 5417 5414 5411 5408 5406 5403 5400 5397 5393 5389 5385 5381 5376 5370 5364 5357 5350 5343 5335 5325 5316 5308 5298 5287
5479 5476 5474 5471 5467 5463 5459 5455 5450 5445 5439 5436 5433 5430 5426 5422 5418 5414 5410 5407 5404 5401 5398 5395 5392 5389 5386 5382 5378 5375 5371 5365 5360 5354 5347 5340 5333 5325 5316 5308 5299 5290 5280